Year,Month,Day,Hour,Minute,Value (Times are PST for temperature in C)
2017,03,23,00,00,3.40
2017,03,23,00,01,3.40
2017,03,23,00,02,3.40
2017,03,23,00,03,3.40
2017,03,23,00,04,3.40
2017,03,23,00,05,3.40
2017,03,23,00,06,3.40
2017,03,23,00,07,3.40
2017,03,23,00,08,3.40
2017,03,23,00,09,3.40
2017,03,23,00,10,3.40
2017,03,23,00,11,3.40
2017,03,23,00,12,3.40
2017,03,23,00,13,3.40
2017,03,23,00,14,3.40
2017,03,23,00,15,3.40
2017,03,23,00,16,3.40
2017,03,23,00,17,3.40
2017,03,23,00,18,3.40
2017,03,23,00,19,3.40
2017,03,23,00,20,3.40
2017,03,23,00,21,3.40
2017,03,23,00,22,3.40
2017,03,23,00,23,3.40
2017,03,23,00,24,3.40
2017,03,23,00,25,3.40
2017,03,23,00,26,3.40
2017,03,23,00,27,3.40
2017,03,23,00,28,3.40
2017,03,23,00,29,3.40
2017,03,23,00,30,3.40
2017,03,23,00,31,3.40
2017,03,23,00,32,3.40
2017,03,23,00,33,3.40
2017,03,23,00,34,3.40
2017,03,23,00,35,3.40
2017,03,23,00,36,3.40
2017,03,23,00,37,3.40
2017,03,23,00,38,3.40
2017,03,23,00,39,3.40
2017,03,23,00,40,3.30
2017,03,23,00,41,3.30
2017,03,23,00,42,3.30
2017,03,23,00,43,3.30
2017,03,23,00,44,3.30
2017,03,23,00,45,3.30
2017,03,23,00,46,3.30
2017,03,23,00,47,3.30
2017,03,23,00,48,3.30
2017,03,23,00,49,3.30
2017,03,23,00,50,3.30
2017,03,23,00,51,3.30
2017,03,23,00,52,3.30
2017,03,23,00,53,3.30
2017,03,23,00,54,3.30
2017,03,23,00,55,3.30
2017,03,23,00,56,3.30
2017,03,23,00,57,3.30
2017,03,23,00,58,3.30
2017,03,23,00,59,3.30
2017,03,23,01,00,3.30
2017,03,23,01,01,3.30
2017,03,23,01,02,3.30
2017,03,23,01,03,3.30
2017,03,23,01,04,3.30
2017,03,23,01,05,3.30
2017,03,23,01,06,3.30
2017,03,23,01,07,3.30
2017,03,23,01,08,3.30
2017,03,23,01,09,3.40
2017,03,23,01,10,3.40
2017,03,23,01,11,3.40
2017,03,23,01,12,3.30
2017,03,23,01,13,3.30
2017,03,23,01,14,3.30
2017,03,23,01,15,3.30
2017,03,23,01,16,3.30
2017,03,23,01,17,3.30
2017,03,23,01,18,3.30
2017,03,23,01,19,3.30
2017,03,23,01,20,3.30
2017,03,23,01,21,3.40
2017,03,23,01,22,3.40
2017,03,23,01,23,3.40
2017,03,23,01,24,3.40
2017,03,23,01,25,3.40
2017,03,23,01,26,3.40
2017,03,23,01,27,3.40
2017,03,23,01,28,3.40
2017,03,23,01,29,3.40
2017,03,23,01,30,3.40
2017,03,23,01,31,3.40
2017,03,23,01,32,3.40
2017,03,23,01,33,3.40
2017,03,23,01,34,3.40
2017,03,23,01,35,3.40
2017,03,23,01,36,3.40
2017,03,23,01,37,3.40
2017,03,23,01,38,3.40
2017,03,23,01,39,3.40
2017,03,23,01,40,3.40
2017,03,23,01,41,3.40
2017,03,23,01,42,3.40
2017,03,23,01,43,3.50
2017,03,23,01,44,3.50
2017,03,23,01,45,3.50
2017,03,23,01,46,3.50
2017,03,23,01,47,3.50
2017,03,23,01,48,3.50
2017,03,23,01,49,3.50
2017,03,23,01,50,3.50
2017,03,23,01,51,3.50
2017,03,23,01,52,3.50
2017,03,23,01,53,3.50
2017,03,23,01,54,3.50
2017,03,23,01,55,3.50
2017,03,23,01,56,3.50
2017,03,23,01,57,3.40
2017,03,23,01,58,3.40
2017,03,23,01,59,3.40
2017,03,23,02,00,3.40
2017,03,23,02,01,3.40
2017,03,23,02,02,3.50
2017,03,23,02,03,3.50
2017,03,23,02,04,3.50
2017,03,23,02,05,3.50
2017,03,23,02,06,3.50
2017,03,23,02,07,3.50
2017,03,23,02,08,3.50
2017,03,23,02,09,3.50
2017,03,23,02,10,3.50
2017,03,23,02,11,3.50
2017,03,23,02,12,3.50
2017,03,23,02,13,3.40
2017,03,23,02,14,3.40
2017,03,23,02,15,3.40
2017,03,23,02,16,3.40
2017,03,23,02,17,3.40
2017,03,23,02,18,3.40
2017,03,23,02,19,3.40
2017,03,23,02,20,3.40
2017,03,23,02,21,3.40
2017,03,23,02,22,3.40
2017,03,23,02,23,3.40
2017,03,23,02,24,3.40
2017,03,23,02,25,3.40
2017,03,23,02,26,3.40
2017,03,23,02,27,3.40
2017,03,23,02,28,3.40
2017,03,23,02,29,3.40
2017,03,23,02,30,3.40
2017,03,23,02,31,3.40
2017,03,23,02,32,3.40
2017,03,23,02,33,3.40
2017,03,23,02,34,3.40
2017,03,23,02,35,3.40
2017,03,23,02,36,3.40
2017,03,23,02,37,3.40
2017,03,23,02,38,3.40
2017,03,23,02,39,3.40
2017,03,23,02,40,3.40
2017,03,23,02,41,3.40
2017,03,23,02,42,3.40
2017,03,23,02,43,3.40
2017,03,23,02,44,3.40
2017,03,23,02,45,3.40
2017,03,23,02,46,3.40
2017,03,23,02,47,3.40
2017,03,23,02,48,3.40
2017,03,23,02,49,3.40
2017,03,23,02,50,3.40
2017,03,23,02,51,3.40
2017,03,23,02,52,3.40
2017,03,23,02,53,3.30
2017,03,23,02,54,3.30
2017,03,23,02,55,3.30
2017,03,23,02,56,3.30
2017,03,23,02,57,3.30
2017,03,23,02,58,3.30
2017,03,23,02,59,3.30
2017,03,23,03,00,3.30
2017,03,23,03,01,3.30
2017,03,23,03,02,3.30
2017,03,23,03,03,3.30
2017,03,23,03,04,3.30
2017,03,23,03,05,3.30
2017,03,23,03,06,3.30
2017,03,23,03,07,3.30
2017,03,23,03,08,3.30
2017,03,23,03,09,3.30
2017,03,23,03,10,3.30
2017,03,23,03,11,3.30
2017,03,23,03,12,3.30
2017,03,23,03,13,3.30
2017,03,23,03,14,3.30
2017,03,23,03,15,3.30
2017,03,23,03,16,3.30
2017,03,23,03,17,3.30
2017,03,23,03,18,3.30
2017,03,23,03,19,3.30
2017,03,23,03,20,3.30
2017,03,23,03,21,3.30
2017,03,23,03,22,3.30
2017,03,23,03,23,3.30
2017,03,23,03,24,3.30
2017,03,23,03,25,3.30
2017,03,23,03,26,3.30
2017,03,23,03,27,3.30
2017,03,23,03,28,3.30
2017,03,23,03,29,3.30
2017,03,23,03,30,3.30
2017,03,23,03,31,3.30
2017,03,23,03,32,3.30
2017,03,23,03,33,3.30
2017,03,23,03,34,3.30
2017,03,23,03,35,3.30
2017,03,23,03,36,3.30
2017,03,23,03,37,3.30
2017,03,23,03,38,3.30
2017,03,23,03,39,3.30
2017,03,23,03,40,3.30
2017,03,23,03,41,3.30
2017,03,23,03,42,3.30
2017,03,23,03,43,3.30
2017,03,23,03,44,3.30
2017,03,23,03,45,3.30
2017,03,23,03,46,3.30
2017,03,23,03,47,3.30
2017,03,23,03,48,3.30
2017,03,23,03,49,3.30
2017,03,23,03,50,3.30
2017,03,23,03,51,3.30
2017,03,23,03,52,3.30
2017,03,23,03,53,3.30
2017,03,23,03,54,3.30
2017,03,23,03,55,3.30
2017,03,23,03,56,3.30
2017,03,23,03,57,3.30
2017,03,23,03,58,3.30
2017,03,23,03,59,3.20
2017,03,23,04,00,3.20
2017,03,23,04,01,3.20
2017,03,23,04,02,3.20
2017,03,23,04,03,3.20
2017,03,23,04,04,3.20
2017,03,23,04,05,3.20
2017,03,23,04,06,3.20
2017,03,23,04,07,3.20
2017,03,23,04,08,3.20
2017,03,23,04,09,3.20
2017,03,23,04,10,3.10
2017,03,23,04,11,3.10
2017,03,23,04,12,3.10
2017,03,23,04,13,3.10
2017,03,23,04,14,3.10
2017,03,23,04,15,3.10
2017,03,23,04,16,3.10
2017,03,23,04,17,3.10
2017,03,23,04,18,3.10
2017,03,23,04,19,3.10
2017,03,23,04,20,3.10
2017,03,23,04,21,3.10
2017,03,23,04,22,3.10
2017,03,23,04,23,3.10
2017,03,23,04,24,3.10
2017,03,23,04,25,3.10
2017,03,23,04,26,3.10
2017,03,23,04,27,3.10
2017,03,23,04,28,3.10
2017,03,23,04,29,3.10
2017,03,23,04,30,3.10
2017,03,23,04,31,3.10
2017,03,23,04,32,3.00
2017,03,23,04,33,3.00
2017,03,23,04,34,3.00
2017,03,23,04,35,3.00
2017,03,23,04,36,3.00
2017,03,23,04,37,3.00
2017,03,23,04,38,3.00
2017,03,23,04,39,3.00
2017,03,23,04,40,2.90
2017,03,23,04,41,2.90
2017,03,23,04,42,2.90
2017,03,23,04,43,2.90
2017,03,23,04,44,2.90
2017,03,23,04,45,2.90
2017,03,23,04,46,2.90
2017,03,23,04,47,2.90
2017,03,23,04,48,2.90
2017,03,23,04,49,2.90
2017,03,23,04,50,2.90
2017,03,23,04,51,2.90
2017,03,23,04,52,2.90
2017,03,23,04,53,2.90
2017,03,23,04,54,2.90
2017,03,23,04,55,2.90
2017,03,23,04,56,2.90
2017,03,23,04,57,2.90
2017,03,23,04,58,2.90
2017,03,23,04,59,2.90
2017,03,23,05,00,2.90
2017,03,23,05,01,2.90
2017,03,23,05,02,2.90
2017,03,23,05,03,2.90
2017,03,23,05,04,2.90
2017,03,23,05,05,2.90
2017,03,23,05,06,2.90
2017,03,23,05,07,2.90
2017,03,23,05,08,2.90
2017,03,23,05,09,2.90
2017,03,23,05,10,2.90
2017,03,23,05,11,2.90
2017,03,23,05,12,2.90
2017,03,23,05,13,2.90
2017,03,23,05,14,2.90
2017,03,23,05,15,2.90
2017,03,23,05,16,2.90
2017,03,23,05,17,2.90
2017,03,23,05,18,2.90
2017,03,23,05,19,2.90
2017,03,23,05,20,2.90
2017,03,23,05,21,2.90
2017,03,23,05,22,2.90
2017,03,23,05,23,2.90
2017,03,23,05,24,2.90
2017,03,23,05,25,2.90
2017,03,23,05,26,2.90
2017,03,23,05,27,2.90
2017,03,23,05,28,2.90
2017,03,23,05,29,2.90
2017,03,23,05,30,2.90
2017,03,23,05,31,2.90
2017,03,23,05,32,2.90
2017,03,23,05,33,2.90
2017,03,23,05,34,2.90
2017,03,23,05,35,2.90
2017,03,23,05,36,2.90
2017,03,23,05,37,2.90
2017,03,23,05,38,2.90
2017,03,23,05,39,2.90
2017,03,23,05,40,2.90
2017,03,23,05,41,2.90
2017,03,23,05,42,2.90
2017,03,23,05,43,2.90
2017,03,23,05,44,2.90
2017,03,23,05,45,2.90
2017,03,23,05,46,2.90
2017,03,23,05,47,2.90
2017,03,23,05,48,2.90
2017,03,23,05,49,2.90
2017,03,23,05,50,2.90
2017,03,23,05,51,3.00
2017,03,23,05,52,2.90
2017,03,23,05,53,2.90
2017,03,23,05,54,2.90
2017,03,23,05,55,2.90
2017,03,23,05,56,2.90
2017,03,23,05,57,2.90
2017,03,23,05,58,2.90
2017,03,23,05,59,2.90
2017,03,23,06,00,2.90
2017,03,23,06,01,2.90
2017,03,23,06,02,2.90
2017,03,23,06,03,2.90
2017,03,23,06,04,2.90
2017,03,23,06,05,2.90
2017,03,23,06,06,2.90
2017,03,23,06,07,2.90
2017,03,23,06,08,2.90
2017,03,23,06,09,2.90
2017,03,23,06,10,2.90
2017,03,23,06,11,2.90
2017,03,23,06,12,2.90
2017,03,23,06,13,2.90
2017,03,23,06,14,2.90
2017,03,23,06,15,2.90
2017,03,23,06,16,2.90
2017,03,23,06,17,2.90
2017,03,23,06,18,2.90
2017,03,23,06,19,2.90
2017,03,23,06,20,2.90
2017,03,23,06,21,2.90
2017,03,23,06,22,2.90
2017,03,23,06,23,2.90
2017,03,23,06,24,2.90
2017,03,23,06,25,2.90
2017,03,23,06,26,2.90
2017,03,23,06,27,2.90
2017,03,23,06,28,2.90
2017,03,23,06,29,2.90
2017,03,23,06,30,2.90
2017,03,23,06,31,2.90
2017,03,23,06,32,3.00
2017,03,23,06,33,3.00
2017,03,23,06,34,3.00
2017,03,23,06,35,3.00
2017,03,23,06,36,3.00
2017,03,23,06,37,3.00
2017,03,23,06,38,3.00
2017,03,23,06,39,3.00
2017,03,23,06,40,3.00
2017,03,23,06,41,3.00
2017,03,23,06,42,3.00
2017,03,23,06,43,3.00
2017,03,23,06,44,3.00
2017,03,23,06,45,3.00
2017,03,23,06,46,3.00
2017,03,23,06,47,3.00
2017,03,23,06,48,3.00
2017,03,23,06,49,3.00
2017,03,23,06,50,3.00
2017,03,23,06,51,3.00
2017,03,23,06,52,3.00
2017,03,23,06,53,3.00
2017,03,23,06,54,3.00
2017,03,23,06,55,3.00
2017,03,23,06,56,3.00
2017,03,23,06,57,3.00
2017,03,23,06,58,3.00
2017,03,23,06,59,3.00
2017,03,23,07,00,3.00
2017,03,23,07,01,3.00
2017,03,23,07,02,3.00
2017,03,23,07,03,3.00
2017,03,23,07,04,3.00
2017,03,23,07,05,3.00
2017,03,23,07,06,3.00
2017,03,23,07,07,3.00
2017,03,23,07,08,3.00
2017,03,23,07,09,3.00
2017,03,23,07,10,3.00
2017,03,23,07,11,3.00
2017,03,23,07,12,3.00
2017,03,23,07,13,3.00
2017,03,23,07,14,3.00
2017,03,23,07,15,3.00
2017,03,23,07,16,3.00
2017,03,23,07,17,3.00
2017,03,23,07,18,3.00
2017,03,23,07,19,3.00
2017,03,23,07,20,3.00
2017,03,23,07,21,3.00
2017,03,23,07,22,3.00
2017,03,23,07,23,3.00
2017,03,23,07,24,3.00
2017,03,23,07,25,3.00
2017,03,23,07,26,3.00
2017,03,23,07,27,3.00
2017,03,23,07,28,3.00
2017,03,23,07,29,3.00
2017,03,23,07,30,3.00
2017,03,23,07,31,3.00
2017,03,23,07,32,3.00
2017,03,23,07,33,3.00
2017,03,23,07,34,3.00
2017,03,23,07,35,3.00
2017,03,23,07,36,3.00
2017,03,23,07,37,3.10
2017,03,23,07,38,3.10
2017,03,23,07,39,3.10
2017,03,23,07,40,3.10
2017,03,23,07,41,3.10
2017,03,23,07,42,3.10
2017,03,23,07,43,3.10
2017,03,23,07,44,3.10
2017,03,23,07,45,3.10
2017,03,23,07,46,3.10
2017,03,23,07,47,3.10
2017,03,23,07,48,3.10
2017,03,23,07,49,3.10
2017,03,23,07,50,3.10
2017,03,23,07,51,3.10
2017,03,23,07,52,3.10
2017,03,23,07,53,3.10
2017,03,23,07,54,3.10
2017,03,23,07,55,3.10
2017,03,23,07,56,3.10
2017,03,23,07,57,3.10
2017,03,23,07,58,3.10
2017,03,23,07,59,3.20
2017,03,23,08,00,3.10
2017,03,23,08,01,3.10
2017,03,23,08,02,3.10
2017,03,23,08,03,3.10
2017,03,23,08,04,3.10
2017,03,23,08,05,3.10
2017,03,23,08,06,3.10
2017,03,23,08,07,3.10
2017,03,23,08,08,3.10
2017,03,23,08,09,3.10
2017,03,23,08,10,3.10
2017,03,23,08,11,3.10
2017,03,23,08,12,3.10
2017,03,23,08,13,3.10
2017,03,23,08,14,3.20
2017,03,23,08,15,3.20
2017,03,23,08,16,3.20
2017,03,23,08,17,3.20
2017,03,23,08,18,3.20
2017,03,23,08,19,3.20
2017,03,23,08,20,3.20
2017,03,23,08,21,3.20
2017,03,23,08,22,3.20
2017,03,23,08,23,3.20
2017,03,23,08,24,3.20
2017,03,23,08,25,3.20
2017,03,23,08,26,3.20
2017,03,23,08,27,3.20
2017,03,23,08,28,3.20
2017,03,23,08,29,3.20
2017,03,23,08,30,3.20
2017,03,23,08,31,3.20
2017,03,23,08,32,3.20
2017,03,23,08,33,3.20
2017,03,23,08,34,3.20
2017,03,23,08,35,3.20
2017,03,23,08,36,3.20
2017,03,23,08,37,3.20
2017,03,23,08,38,3.20
2017,03,23,08,39,3.20
2017,03,23,08,40,3.20
2017,03,23,08,41,3.20
2017,03,23,08,42,3.20
2017,03,23,08,43,3.20
2017,03,23,08,44,3.20
2017,03,23,08,45,3.20
2017,03,23,08,46,3.20
2017,03,23,08,47,3.20
2017,03,23,08,48,3.30
2017,03,23,08,49,3.30
2017,03,23,08,50,3.30
2017,03,23,08,51,3.30
2017,03,23,08,52,3.30
2017,03,23,08,53,3.30
2017,03,23,08,54,3.30
2017,03,23,08,55,3.30
2017,03,23,08,56,3.30
2017,03,23,08,57,3.30
2017,03,23,08,58,3.30
2017,03,23,08,59,3.30
2017,03,23,09,00,3.30
2017,03,23,09,01,3.30
2017,03,23,09,02,3.30
2017,03,23,09,03,3.30
2017,03,23,09,04,3.30
2017,03,23,09,05,3.30
2017,03,23,09,06,3.30
2017,03,23,09,07,3.30
2017,03,23,09,08,3.40
2017,03,23,09,09,3.40
2017,03,23,09,10,3.40
2017,03,23,09,11,3.50
2017,03,23,09,12,3.50
2017,03,23,09,13,3.50
2017,03,23,09,14,3.60
2017,03,23,09,15,3.60
2017,03,23,09,16,3.60
2017,03,23,09,17,3.70
2017,03,23,09,18,3.70
2017,03,23,09,19,3.70
2017,03,23,09,20,3.70
2017,03,23,09,21,3.70
2017,03,23,09,22,3.70
2017,03,23,09,23,3.70
2017,03,23,09,24,3.70
2017,03,23,09,25,3.70
2017,03,23,09,26,3.70
2017,03,23,09,27,3.80
2017,03,23,09,28,3.80
2017,03,23,09,29,3.80
2017,03,23,09,30,3.80
2017,03,23,09,31,3.80
2017,03,23,09,32,3.90
2017,03,23,09,33,4.00
2017,03,23,09,34,4.00
2017,03,23,09,35,4.10
2017,03,23,09,36,4.10
2017,03,23,09,37,4.20
2017,03,23,09,38,4.20
2017,03,23,09,39,4.20
2017,03,23,09,40,4.20
2017,03,23,09,41,4.20
2017,03,23,09,42,4.20
2017,03,23,09,43,4.20
2017,03,23,09,44,4.20
2017,03,23,09,45,4.20
2017,03,23,09,46,4.20
2017,03,23,09,47,4.20
2017,03,23,09,48,4.30
2017,03,23,09,49,4.30
2017,03,23,09,50,4.30
2017,03,23,09,51,4.40
2017,03,23,09,52,4.40
2017,03,23,09,53,4.40
2017,03,23,09,54,4.50
2017,03,23,09,55,4.50
2017,03,23,09,56,4.50
2017,03,23,09,57,4.60
2017,03,23,09,58,4.60
2017,03,23,09,59,4.60
2017,03,23,10,00,4.70
2017,03,23,10,01,4.70
2017,03,23,10,02,4.70
2017,03,23,10,03,4.80
2017,03,23,10,04,4.80
2017,03,23,10,05,4.80
2017,03,23,10,06,4.80
2017,03,23,10,07,4.80
2017,03,23,10,08,4.70
2017,03,23,10,09,4.70
2017,03,23,10,10,4.70
2017,03,23,10,11,4.70
2017,03,23,10,12,4.70
2017,03,23,10,13,4.70
2017,03,23,10,14,4.70
2017,03,23,10,15,4.70
2017,03,23,10,16,4.60
2017,03,23,10,17,4.60
2017,03,23,10,18,4.70
2017,03,23,10,19,4.70
2017,03,23,10,20,4.70
2017,03,23,10,21,4.70
2017,03,23,10,22,4.70
2017,03,23,10,23,4.70
2017,03,23,10,24,4.80
2017,03,23,10,25,4.80
2017,03,23,10,26,4.80
2017,03,23,10,27,4.80
2017,03,23,10,28,4.80
2017,03,23,10,29,4.80
2017,03,23,10,30,4.80
2017,03,23,10,31,4.90
2017,03,23,10,32,4.90
2017,03,23,10,33,4.90
2017,03,23,10,34,4.90
2017,03,23,10,35,5.00
2017,03,23,10,36,5.00
2017,03,23,10,37,5.10
2017,03,23,10,38,5.10
2017,03,23,10,39,5.10
2017,03,23,10,40,5.10
2017,03,23,10,41,5.10
2017,03,23,10,42,5.10
2017,03,23,10,43,5.10
2017,03,23,10,44,5.10
2017,03,23,10,45,5.20
2017,03,23,10,46,5.10
2017,03,23,10,47,5.10
2017,03,23,10,48,5.10
2017,03,23,10,49,5.10
2017,03,23,10,50,5.10
2017,03,23,10,51,5.20
2017,03,23,10,52,5.20
2017,03,23,10,53,5.20
2017,03,23,10,54,5.20
2017,03,23,10,55,5.20
2017,03,23,10,56,5.20
2017,03,23,10,57,5.20
2017,03,23,10,58,5.20
2017,03,23,10,59,5.20
2017,03,23,11,00,5.30
2017,03,23,11,01,5.30
2017,03,23,11,02,5.40
2017,03,23,11,03,5.40
2017,03,23,11,04,5.40
2017,03,23,11,05,5.50
2017,03,23,11,06,5.60
2017,03,23,11,07,5.70
2017,03,23,11,08,5.70
2017,03,23,11,09,5.70
2017,03,23,11,10,5.80
2017,03,23,11,11,5.80
2017,03,23,11,12,5.80
2017,03,23,11,13,5.80
2017,03,23,11,14,5.80
2017,03,23,11,15,5.70
2017,03,23,11,16,5.70
2017,03,23,11,17,5.60
2017,03,23,11,18,5.60
2017,03,23,11,19,5.50
2017,03,23,11,20,5.40
2017,03,23,11,21,5.50
2017,03,23,11,22,5.50
2017,03,23,11,23,5.50
2017,03,23,11,24,5.50
2017,03,23,11,25,5.60
2017,03,23,11,26,5.70
2017,03,23,11,27,5.70
2017,03,23,11,28,5.80
2017,03,23,11,29,5.80
2017,03,23,11,30,5.80
2017,03,23,11,31,5.90
2017,03,23,11,32,5.90
2017,03,23,11,33,5.90
2017,03,23,11,34,5.90
2017,03,23,11,35,5.90
2017,03,23,11,36,5.90
2017,03,23,11,37,5.90
2017,03,23,11,38,6.00
2017,03,23,11,39,6.00
2017,03,23,11,40,6.10
2017,03,23,11,41,6.10
2017,03,23,11,42,6.10
2017,03,23,11,43,6.10
2017,03,23,11,44,6.10
2017,03,23,11,45,6.10
2017,03,23,11,46,6.10
2017,03,23,11,47,6.20
2017,03,23,11,48,6.30
2017,03,23,11,49,6.30
2017,03,23,11,50,6.40
2017,03,23,11,51,6.50
2017,03,23,11,52,6.70
2017,03,23,11,53,6.80
2017,03,23,11,54,6.80
2017,03,23,11,55,6.90
2017,03,23,11,56,6.90
2017,03,23,11,57,6.90
2017,03,23,11,58,6.80
2017,03,23,11,59,6.90
2017,03,23,12,00,6.90
2017,03,23,12,01,6.90
2017,03,23,12,02,6.90
2017,03,23,12,03,6.80
2017,03,23,12,04,6.80
2017,03,23,12,05,6.80
2017,03,23,12,06,6.70
2017,03,23,12,07,6.70
2017,03,23,12,08,6.70
2017,03,23,12,09,6.80
2017,03,23,12,10,6.80
2017,03,23,12,11,6.80
2017,03,23,12,12,6.80
2017,03,23,12,13,6.80
2017,03,23,12,14,6.80
2017,03,23,12,15,6.80
2017,03,23,12,16,6.70
2017,03,23,12,17,6.70
2017,03,23,12,18,6.60
2017,03,23,12,19,6.70
2017,03,23,12,20,6.60
2017,03,23,12,21,6.60
2017,03,23,12,22,6.60
2017,03,23,12,23,6.70
2017,03,23,12,24,6.70
2017,03,23,12,25,6.70
2017,03,23,12,26,6.70
2017,03,23,12,27,6.60
2017,03,23,12,28,6.70
2017,03,23,12,29,6.70
2017,03,23,12,30,6.70
2017,03,23,12,31,6.80
2017,03,23,12,32,6.80
2017,03,23,12,33,6.90
2017,03,23,12,34,6.90
2017,03,23,12,35,6.90
2017,03,23,12,36,6.90
2017,03,23,12,37,6.90
2017,03,23,12,38,6.90
2017,03,23,12,39,6.90
2017,03,23,12,40,6.90
2017,03,23,12,41,7.00
2017,03,23,12,42,7.00
2017,03,23,12,43,7.00
2017,03,23,12,44,7.00
2017,03,23,12,45,7.00
2017,03,23,12,46,7.10
2017,03,23,12,47,7.10
2017,03,23,12,48,7.10
2017,03,23,12,49,7.20
2017,03,23,12,50,7.10
2017,03,23,12,51,7.10
2017,03,23,12,52,7.20
2017,03,23,12,53,7.20
2017,03,23,12,54,7.20
2017,03,23,12,55,7.20
2017,03,23,12,56,7.20
2017,03,23,12,57,7.20
2017,03,23,12,58,7.20
2017,03,23,12,59,7.20
2017,03,23,13,00,7.20
2017,03,23,13,01,7.20
2017,03,23,13,02,7.30
2017,03,23,13,03,7.30
2017,03,23,13,04,7.20
2017,03,23,13,05,7.20
2017,03,23,13,06,7.20
2017,03,23,13,07,7.30
2017,03,23,13,08,7.30
2017,03,23,13,09,7.30
2017,03,23,13,10,7.30
2017,03,23,13,11,7.30
2017,03,23,13,12,7.30
2017,03,23,13,13,7.40
2017,03,23,13,14,7.40
2017,03,23,13,15,7.40
2017,03,23,13,16,7.40
2017,03,23,13,17,7.40
2017,03,23,13,18,7.50
2017,03,23,13,19,7.50
2017,03,23,13,20,7.50
2017,03,23,13,21,7.50
2017,03,23,13,22,7.50
2017,03,23,13,23,7.50
2017,03,23,13,24,7.50
2017,03,23,13,25,7.50
2017,03,23,13,26,7.60
2017,03,23,13,27,7.60
2017,03,23,13,28,7.70
2017,03,23,13,29,7.70
2017,03,23,13,30,7.70
2017,03,23,13,31,7.70
2017,03,23,13,32,7.70
2017,03,23,13,33,7.80
2017,03,23,13,34,7.80
2017,03,23,13,35,7.80
2017,03,23,13,36,7.90
2017,03,23,13,37,7.90
2017,03,23,13,38,7.90
2017,03,23,13,39,7.90
2017,03,23,13,40,7.90
2017,03,23,13,41,7.90
2017,03,23,13,42,7.90
2017,03,23,13,43,7.90
2017,03,23,13,44,8.00
2017,03,23,13,45,8.00
2017,03,23,13,46,8.00
2017,03,23,13,47,8.00
2017,03,23,13,48,8.00
2017,03,23,13,49,8.00
2017,03,23,13,50,8.00
2017,03,23,13,51,8.00
2017,03,23,13,52,8.10
2017,03,23,13,53,8.10
2017,03,23,13,54,8.10
2017,03,23,13,55,8.10
2017,03,23,13,56,8.10
2017,03,23,13,57,8.10
2017,03,23,13,58,8.10
2017,03,23,13,59,8.10
2017,03,23,14,00,8.10
2017,03,23,14,01,8.10
2017,03,23,14,02,8.10
2017,03,23,14,03,8.10
2017,03,23,14,04,8.10
2017,03,23,14,05,8.10
2017,03,23,14,06,8.10
2017,03,23,14,07,8.10
2017,03,23,14,08,8.10
2017,03,23,14,09,8.20
2017,03,23,14,10,8.20
2017,03,23,14,11,8.30
2017,03,23,14,12,8.30
2017,03,23,14,13,8.30
2017,03,23,14,14,8.30
2017,03,23,14,15,8.40
2017,03,23,14,16,8.40
2017,03,23,14,17,8.50
2017,03,23,14,18,8.60
2017,03,23,14,19,8.70
2017,03,23,14,20,8.70
2017,03,23,14,21,8.80
2017,03,23,14,22,8.90
2017,03,23,14,23,9.00
2017,03,23,14,24,9.00
2017,03,23,14,25,8.90
2017,03,23,14,26,8.80
2017,03,23,14,27,8.70
2017,03,23,14,28,8.60
2017,03,23,14,29,8.60
2017,03,23,14,30,8.60
2017,03,23,14,31,8.50
2017,03,23,14,32,8.50
2017,03,23,14,33,8.50
2017,03,23,14,34,8.50
2017,03,23,14,35,8.50
2017,03,23,14,36,8.50
2017,03,23,14,37,8.60
2017,03,23,14,38,8.60
2017,03,23,14,39,8.60
2017,03,23,14,40,8.60
2017,03,23,14,41,8.60
2017,03,23,14,42,8.60
2017,03,23,14,43,8.60
2017,03,23,14,44,8.60
2017,03,23,14,45,8.60
2017,03,23,14,46,8.60
2017,03,23,14,47,8.70
2017,03,23,14,48,8.70
2017,03,23,14,49,8.80
2017,03,23,14,50,8.80
2017,03,23,14,51,8.80
2017,03,23,14,52,8.80
2017,03,23,14,53,8.80
2017,03,23,14,54,8.80
2017,03,23,14,55,8.80
2017,03,23,14,56,8.80
2017,03,23,14,57,8.80
2017,03,23,14,58,8.80
2017,03,23,14,59,8.80
2017,03,23,15,00,8.80
2017,03,23,15,01,8.80
2017,03,23,15,02,8.80
2017,03,23,15,03,8.70
2017,03,23,15,04,8.70
2017,03,23,15,05,8.70
2017,03,23,15,06,8.70
2017,03,23,15,07,8.70
2017,03,23,15,08,8.70
2017,03,23,15,09,8.70
2017,03,23,15,10,8.70
2017,03,23,15,11,8.70
2017,03,23,15,12,8.70
2017,03,23,15,13,8.70
2017,03,23,15,14,8.70
2017,03,23,15,15,8.70
2017,03,23,15,16,8.70
2017,03,23,15,17,8.70
2017,03,23,15,18,8.60
2017,03,23,15,19,8.60
2017,03,23,15,20,8.60
2017,03,23,15,21,8.60
2017,03,23,15,22,8.50
2017,03,23,15,23,8.50
2017,03,23,15,24,8.50
2017,03,23,15,25,8.50
2017,03,23,15,26,8.50
2017,03,23,15,27,8.40
2017,03,23,15,28,8.40
2017,03,23,15,29,8.40
2017,03,23,15,30,8.40
2017,03,23,15,31,8.40
2017,03,23,15,32,8.30
2017,03,23,15,33,8.30
2017,03,23,15,34,8.30
2017,03,23,15,35,8.30
2017,03,23,15,36,8.30
2017,03,23,15,37,8.30
2017,03,23,15,38,8.30
2017,03,23,15,39,8.30
2017,03,23,15,40,8.30
2017,03,23,15,41,8.30
2017,03,23,15,42,8.30
2017,03,23,15,43,8.30
2017,03,23,15,44,8.30
2017,03,23,15,45,8.30
2017,03,23,15,46,8.30
2017,03,23,15,47,8.30
2017,03,23,15,48,8.30
2017,03,23,15,49,8.30
2017,03,23,15,50,8.30
2017,03,23,15,51,8.30
2017,03,23,15,52,8.30
2017,03,23,15,53,8.30
2017,03,23,15,54,8.20
2017,03,23,15,55,8.20
2017,03,23,15,56,8.20
2017,03,23,15,57,8.20
2017,03,23,15,58,8.10
2017,03,23,15,59,8.10
2017,03,23,16,00,8.10
2017,03,23,16,01,8.10
2017,03,23,16,02,8.10
2017,03,23,16,03,8.10
2017,03,23,16,04,8.10
2017,03,23,16,05,8.00
2017,03,23,16,06,8.00
2017,03,23,16,07,8.00
2017,03,23,16,08,7.90
2017,03,23,16,09,7.90
2017,03,23,16,10,7.90
2017,03,23,16,11,7.90
2017,03,23,16,12,7.90
2017,03,23,16,13,7.90
2017,03,23,16,14,7.90
2017,03,23,16,15,7.90
2017,03,23,16,16,7.80
2017,03,23,16,17,7.80
2017,03,23,16,18,7.80
2017,03,23,16,19,7.80
2017,03,23,16,20,7.80
2017,03,23,16,21,7.80
2017,03,23,16,22,7.80
2017,03,23,16,23,7.80
2017,03,23,16,24,7.80
2017,03,23,16,25,7.80
2017,03,23,16,26,7.80
2017,03,23,16,27,7.80
2017,03,23,16,28,7.80
2017,03,23,16,29,7.80
2017,03,23,16,30,7.80
2017,03,23,16,31,7.80
2017,03,23,16,32,7.80
2017,03,23,16,33,7.80
2017,03,23,16,34,7.70
2017,03,23,16,35,7.70
2017,03,23,16,36,7.70
2017,03,23,16,37,7.70
2017,03,23,16,38,7.70
2017,03,23,16,39,7.60
2017,03,23,16,40,7.60
2017,03,23,16,41,7.60
2017,03,23,16,42,7.60
2017,03,23,16,43,7.50
2017,03,23,16,44,7.50
2017,03,23,16,45,7.50
2017,03,23,16,46,7.50
2017,03,23,16,47,7.40
2017,03,23,16,48,7.40
2017,03,23,16,49,7.40
2017,03,23,16,50,7.40
2017,03,23,16,51,7.30
2017,03,23,16,52,7.30
2017,03,23,16,53,7.30
2017,03,23,16,54,7.30
2017,03,23,16,55,7.20
2017,03,23,16,56,7.20
2017,03,23,16,57,7.20
2017,03,23,16,58,7.20
2017,03,23,16,59,7.20
2017,03,23,17,00,7.20
2017,03,23,17,01,7.20
2017,03,23,17,02,7.20
2017,03,23,17,03,7.20
2017,03,23,17,04,7.20
2017,03,23,17,05,7.10
2017,03,23,17,06,7.10
2017,03,23,17,07,7.10
2017,03,23,17,08,7.10
2017,03,23,17,09,7.10
2017,03,23,17,10,7.00
2017,03,23,17,11,7.00
2017,03,23,17,12,7.00
2017,03,23,17,13,7.00
2017,03,23,17,14,6.90
2017,03,23,17,15,6.90
2017,03,23,17,16,6.90
2017,03,23,17,17,6.80
2017,03,23,17,18,6.80
2017,03,23,17,19,6.80
2017,03,23,17,20,6.80
2017,03,23,17,21,6.70
2017,03,23,17,22,6.70
2017,03,23,17,23,6.70
2017,03,23,17,24,6.70
2017,03,23,17,25,6.60
2017,03,23,17,26,6.60
2017,03,23,17,27,6.60
2017,03,23,17,28,6.50
2017,03,23,17,29,6.50
2017,03,23,17,30,6.50
2017,03,23,17,31,6.50
2017,03,23,17,32,6.50
2017,03,23,17,33,6.40
2017,03,23,17,34,6.40
2017,03,23,17,35,6.40
2017,03,23,17,36,6.40
2017,03,23,17,37,6.40
2017,03,23,17,38,6.40
2017,03,23,17,39,6.40
2017,03,23,17,40,6.40
2017,03,23,17,41,6.40
2017,03,23,17,42,6.40
2017,03,23,17,43,6.30
2017,03,23,17,44,6.30
2017,03,23,17,45,6.30
2017,03,23,17,46,6.30
2017,03,23,17,47,6.30
2017,03,23,17,48,6.30
2017,03,23,17,49,6.20
2017,03,23,17,50,6.20
2017,03,23,17,51,6.20
2017,03,23,17,52,6.20
2017,03,23,17,53,6.20
2017,03,23,17,54,6.20
2017,03,23,17,55,6.20
2017,03,23,17,56,6.20
2017,03,23,17,57,6.20
2017,03,23,17,58,6.20
2017,03,23,17,59,6.20
2017,03,23,18,00,6.20
2017,03,23,18,01,6.10
2017,03,23,18,02,6.10
2017,03,23,18,03,6.10
2017,03,23,18,04,6.10
2017,03,23,18,05,6.10
2017,03,23,18,06,6.10